This demonstration page uses our WeatherBlox Daily Observations layout. Learn more.

Left ArrowRight Arrow

30.21309, -93.2044

Hourly Observations for May 31, 2015

Temp ( °F °C ) Dew Point ( °F °C ) Humidity (%) Winds ( mph kmh ) Pressure ( in mb ) Visibility ( mi km ) Precip ( " mm )
12:15 am 00:15 Clear 71 21.8 69 20.5 92 92 SSE 3 6 30.03 1017 10 16 0.00 0.00
12:35 am 00:35 Clear 72 22.3 69 20.5 90 90 Calm 30.03 1017 10 16 0.00 0.00
12:55 am 00:55 Clear 72 22.1 69 20.4 90 90 Calm 30.03 1017 10 16 0.00 0.00
1:15 am 01:15 Clear 72 22.2 69 20.3 89 89 Calm 30.03 1017 10 16 0.00 0.00
1:35 am 01:35 Partly Cloudy 72 22.2 69 20.6 91 91 Calm 30.03 1017 10 16 0.00 0.00
1:55 am 01:55 Mostly Cloudy 73 22.5 69 20.6 89 89 Calm 30.03 1017 10 16 0.00 0.00
2:15 am 02:15 Cloudy 73 22.6 70 20.9 90 90 NNW 3 6 30.03 1017 10 16 0.00 0.00
2:35 am 02:35 Mostly Cloudy 72 22.3 70 20.9 92 92 WNW 5 7 30.03 1017 10 16 0.00 0.00
2:55 am 02:55 Mostly Cloudy 72 22.3 69 20.8 91 91 NNW 3 6 30.03 1017 10 16 0.00 0.00
3:15 am 03:15 Mostly Cloudy with Nearby Thunderstorms 71 21.9 69 20.5 92 92 NNW 5 7 30.00 1016 10 16 0.00 0.00
3:35 am 03:35 Cloudy 72 22 69 20.6 92 92 N 3 6 30.00 1016 10 16 0.00 0.00
3:55 am 03:55 Mostly Cloudy with Nearby Thunderstorms 71 21.7 69 20.5 93 93 Calm 30.00 1016 10 16 0.00 0.00
4:15 am 04:15 Partly Cloudy with Nearby Thunderstorms 71 21.5 68 20.2 92 92 Calm 30.00 1016 10 16 0.00 0.00
4:35 am 04:35 Clear with Nearby Thunderstorms 71 21.4 69 20.3 93 93 Calm 30.00 1016 10 16 0.00 0.00
4:55 am 04:55 Clear 71 21.6 69 20.5 93 93 Calm 30.00 1016 10 16 0.00 0.00
5:15 am 05:15 Clear 70 21.2 69 20.3 95 95 Calm 30.00 1016 10 16 0.00 0.00
6:00 am 06:00 Mostly Clear 70 21 68 20 94 94 Calm 30.00 1016 10 16 0.00 0.00
6:50 am 06:50 Mostly Cloudy 72 22 70 21 94 94 Calm 30.03 1017 10 16 0.00 0.00
7:50 am 07:50 Cloudy 72 22 70 21 94 94 SE 3 6 30.03 1017 10 16 0.00 0.00
8:50 am 08:50 Cloudy 75 24 72 22 89 89 Calm 30.03 1017 10 16 0.00 0.00
9:50 am 09:50 Partly Cloudy 79 26 66 19 65 65 N 5 7 30.06 1018 10 16 0.00 0.00
10:50 am 10:50 Mostly Cloudy 79 26 68 20 70 70 NNW 8 13 30.06 1018 10 16 0.00 0.00
11:50 am 11:50 Mostly Cloudy 79 26 70 21 74 74 N 6 9 30.06 1018 10 16 0.00 0.00
12:50 pm 12:50 Partly Cloudy 81 27 70 21 70 70 N 6 9 30.03 1017 10 16 0.00 0.00
1:50 pm 13:50 Mostly Cloudy 81 27 70 21 70 70 N 6 9 30.03 1017 10 16 0.00 0.00
9:50 pm 21:50 Partly Cloudy 73 23 70 21 89 89 ESE 3 6 30.03 1017 10 16 0.00 0.00
10:15 pm 22:15 Partly Cloudy 74 23.5 71 21.5 89 89 Calm 30.03 1017 10 16 0.00 0.00
10:35 pm 22:35 Cloudy 75 23.8 71 21.5 87 87 Calm 30.03 1017 10 16 0.00 0.00
10:55 pm 22:55 Partly Cloudy 75 24.1 70 21.2 84 84 Calm 30.03 1017 10 16 0.00 0.00
11:15 pm 23:15 Partly Cloudy 74 23.4 71 21.5 89 89 Calm 30.03 1017 10 16 0.00 0.00
11:35 pm 23:35 Mostly Cloudy 76 24.6 70 21 80 80 WSW 6 9 30.03 1017 10 16 0.00 0.00
11:55 pm 23:55 Mostly Cloudy 75 23.8 68 20.1 80 80 S 5 7 30.03 1017 10 16 0.00 0.00

Powered by AerisWeather